Regional Weather Roundup
Issued by NWS

Home | Current Version | Previous Version | Graphics & Text | Print | Product List | Glossary On
Versions: 1 2 3 4 5 6 7 8 9 10 11 12 13 14 15 16 17 18 19 20 21 22 23 24 25 26 27 28 29 30 31 32 33 34 35 36 37 38 39 40 41 42 43 44 45 46 47 48 49 50
000
ASUS43 KLOT 291910
RWRIL

ILLINOIS REGIONAL WEATHER ROUNDUP
NATIONAL WEATHER SERVICE CHICAGO/ROMEOVILLE IL
200 PM CDT FRI AUG 29 2014

NOTE: "FAIR" INDICATES FEW OR NO CLOUDS BELOW 12,000 FEET WITH NO
SIGNIFICANT WEATHER AND/OR OBSTRUCTIONS TO VISIBILITY.

* THESE STATIONS ARE NOT UNDER NWS QUALITY CONTROL. THEY ALSO MAY NOT
  REPORT WEATHER SUCH AS PRECIPITATION OR FOG.

ILZ001-002-007-009-015-016-024-292000-
NORTHWEST ILLINOIS

CITY           SKY/WX    TMP DP  RH WIND       PRES   REMARKS
MOLINE         SUNNY     85  72  65 S10       29.86F HX  91
STERLING*      MOSUNNY   84  73  70 SW6       29.90F HX  91
SAVANNA*       MOSUNNY   87  71  58 S10       29.87F HX  92
$$

ILZ003-004-008-010-011-017-018-292000-
NORTH CENTRAL ILLINOIS

CITY           SKY/WX    TMP DP  RH WIND       PRES   REMARKS
ROCKFORD       PTSUNNY   82  70  66 S17       29.92F HX  86
FREEPORT*      MOSUNNY   80  73  77 S15       29.91F HX  84
ROCHELLE*      CLOUDY    82  71  68 S7        29.92F HX  86
DE KALB*       CLOUDY    78  72  80 S10       29.94F HX  81
PERU*          MOSUNNY   83  70  64 S10G17    29.92F HX  87
$$

ILZ005-006-012>014-019>023-292000-
NORTHEAST ILLINOIS

CITY           SKY/WX    TMP DP  RH WIND       PRES   REMARKS
CHICAGO-OHARE  PTSUNNY   85  70  60 S15       29.94F HX  89
CHICAGO-MIDWAY PTSUNNY   85  73  67 SW13      29.94F HX  91
AURORA         PTSUNNY   83  72  69 S12       29.93F HX  88
LANSING*       PTSUNNY   82  72  71 S12       29.96F HX  87
JOLIET*        MOSUNNY   83  71  65 S10G16    29.95F HX  87
WAUKEGAN       PTSUNNY   81  72  74 E5        29.92F HX  85
DUPAGE AIRPORT PTSUNNY   83  73  72 S12       29.93F HX  89
KANKAKEE*      PTSUNNY   83  75  76 S8        29.96F HX  90
WHEELING       PTSUNNY   85  71  63 SW10      29.94F HX  90
MORRIS*        MOSUNNY   85  75  73 S9        29.93F HX  93
ROMEOVILLE*    PTSUNNY   82  73  72 S12       29.95F HX  88
NORTHERLY ISL    N/A     83  69  62 S12         N/A  HX  86
$$

LMZ740>746-292000-
SOUTHERN LAKE MICHIGAN

STATION/POSITION SKY/WX   TEMP    WIND        PRES    VSBY  WAVE
                          AIR SEA DIR/SP/G                  HT/PER
                          (F)     (DEG/KT/KT) (MB)    (MI)  (FT/S)
SOUTHERN BUOY              70 69  150/ 14/ 16 1014.3F         3/ 5
WAUKEGAN HARBOR            77     150/ 11/ 14   N/A
HARRISON CRIB              78     150/ 12/ 15   N/A
BURNHAM HARBOR             84     200/  5/ 13   N/A
CALUMET HARBOR             82     170/  9/ 13 1013.0F
MICHIGAN CITY              76     120/ 12/ 16   N/A
MICHIGAN CITY 6N           75 71  150/ 10/ 12   N/A           1/ 2
ST. JOSEPH                 75 71  170/ 12/ 16   N/A           1/ 3
$$

ILZ025>027-034>036-040-047-049-050-058-095>099-292000-
WEST-CENTRAL ILLINOIS

CITY           SKY/WX    TMP DP  RH WIND       PRES   REMARKS
QUINCY         SUNNY     87  61  41 S13       29.87F HX  87
GALESBURG*     MOSUNNY   87  75  66 S9        29.89F HX  96
MACOMB*          N/A    N/A N/A N/A S10       29.90F
JACKSONVILLE*  MOSUNNY   90  73  56 SE12      29.91F HX  97
PITTSFIELD*    MOSUNNY   88  67  48 S9        29.90F HX  91
$$

ILZ028>032-037-038-041>044-048-051>054-059>061-292000-
CENTRAL ILLINOIS

CITY           SKY/WX    TMP DP  RH WIND       PRES   REMARKS
PONTIAC        SUNNY     84  75  74 SE7       29.94F HX  92
DECATUR        MOSUNNY   86  73  65 S13       29.94F HX  93
PEORIA         SUNNY     86  72  62 S9        29.91F HX  92
LACON*         SUNNY     85  72  64 S9        29.90F HX  90
LINCOLN*       MOSUNNY   87  73  64 SE6       29.89F HX  94
SPRINGFIELD    PTSUNNY   87  72  60 S8        29.91F HX  93
TAYLORVILLE    PTSUNNY   82  73  74 SE13      29.93F HX  88
$$

ILZ033-039-045-046-055>057-062-063-292000-
EAST-CENTRAL ILLINOIS

CITY           SKY/WX    TMP DP  RH WIND       PRES   REMARKS
CHAMPAIGN      MOSUNNY   85  74  69 SE9       29.95F HX  92
DANVILLE*      MOSUNNY   83  74  74 S7        29.94F HAZE    HX  90
RANTOUL*       MOSUNNY   82  73  75 S7        29.97F HX  87
MATTOON        MOSUNNY   86  73  65 S7        29.95F HX  93
PARIS*         MOSUNNY   87  76  69 S7        29.97F HX  98
$$

ILZ079-100>102-292000-
SOUTHWEST ILLINOIS

CITY           SKY/WX    TMP DP  RH WIND       PRES   REMARKS
ALTON          MOSUNNY   88  66  48 S9        29.91F HX  90
BELLEVILLE     SUNNY     89  72  58 E8        29.91F HX  95
CAHOKIA*       SUNNY     90  68  48 S8        29.90F HX  94
SPARTA*        MOSUNNY   87  68  52 S8        29.95S HX  91
$$

ILZ064>066-069>071-074>076-080>082-084>086-088>090-092>094-292000-
SOUTH-CENTRAL ILLINOIS

CITY           SKY/WX    TMP DP  RH WIND       PRES   REMARKS
CARBONDALE     MOSUNNY   88  69  53 S10       29.95F HX  92
CAIRO*         MOSUNNY   91  69  49 S8        29.95F HX  95
EFFINGHAM*     MOSUNNY   88  68  51 S8        29.95F HX  91
MARION         PTSUNNY   91  68  46 S12       29.96F HX  95
MT. VERNON     MOSUNNY   90  73  58 S10       29.96F HX  98
CENTRALIA*     SUNNY     88  70  55 S8        29.94F HX  92
SALEM*         MOSUNNY   87  73  62 S7        29.95F HX  94
METROPOLIS*    PTSUNNY   88  68  50 S6        29.96F HX  91
$$

ILZ067-068-072-073-078-083-087-091-292000-
SOUTHEAST ILLINOIS

CITY           SKY/WX    TMP DP  RH WIND       PRES   REMARKS
LAWRENCEVILLE  MOSUNNY   90  71  53 SE12      29.96F HX  96
FLORA*         SUNNY     88  71  57 S8        29.96F HX  93
FAIRFIELD*     SUNNY     90  75  62 S10       29.96F HX 100
HARRISBURG*    SUNNY     88  68  51 SW9       29.97F HX  92
ROBINSON*      MOSUNNY   90  76  62 S7        29.96F HX 101
CARMI*         SUNNY     92  69  45 S9        29.95F HX  97
$$

ABBREVIATIONS USED IN REMARKS
   TC - TEMPERATURE IN CELSIUS
  WCI - WIND CHILL INDEX
   HX - HEAT INDEX
  VSB - VISIBILITY
$$



USA.gov is the U.S. government's official web portal to all federal, state and local government web resources and services.